Year,Month,Day,Hour,Minute,Value (Times are PST for temperature in C)
2013,09,16,00,00,13.70
2013,09,16,00,01,13.70
2013,09,16,00,02,13.70
2013,09,16,00,03,13.70
2013,09,16,00,04,13.70
2013,09,16,00,05,13.70
2013,09,16,00,06,13.70
2013,09,16,00,07,13.70
2013,09,16,00,08,13.70
2013,09,16,00,09,13.80
2013,09,16,00,10,13.80
2013,09,16,00,11,13.80
2013,09,16,00,12,13.80
2013,09,16,00,13,13.90
2013,09,16,00,14,13.90
2013,09,16,00,15,13.90
2013,09,16,00,16,14.00
2013,09,16,00,17,14.00
2013,09,16,00,18,14.10
2013,09,16,00,19,14.20
2013,09,16,00,20,14.20
2013,09,16,00,21,14.20
2013,09,16,00,22,14.20
2013,09,16,00,23,14.20
2013,09,16,00,24,14.20
2013,09,16,00,25,14.20
2013,09,16,00,26,14.10
2013,09,16,00,27,14.10
2013,09,16,00,28,14.10
2013,09,16,00,29,14.00
2013,09,16,00,30,14.00
2013,09,16,00,31,14.00
2013,09,16,00,32,14.00
2013,09,16,00,33,13.90
2013,09,16,00,34,13.90
2013,09,16,00,35,13.90
2013,09,16,00,36,13.90
2013,09,16,00,37,13.90
2013,09,16,00,38,13.90
2013,09,16,00,39,13.90
2013,09,16,00,40,14.00
2013,09,16,00,41,14.00
2013,09,16,00,42,14.00
2013,09,16,00,43,14.00
2013,09,16,00,44,14.00
2013,09,16,00,45,14.00
2013,09,16,00,46,14.10
2013,09,16,00,47,14.10
2013,09,16,00,48,14.10
2013,09,16,00,49,14.10
2013,09,16,00,50,14.10
2013,09,16,00,51,14.20
2013,09,16,00,52,14.20
2013,09,16,00,53,14.20
2013,09,16,00,54,14.20
2013,09,16,00,55,14.20
2013,09,16,00,56,14.20
2013,09,16,00,57,14.20
2013,09,16,00,58,14.20
2013,09,16,00,59,14.20
2013,09,16,01,00,14.20
2013,09,16,01,01,14.30
2013,09,16,01,02,14.30
2013,09,16,01,03,14.30
2013,09,16,01,04,14.30
2013,09,16,01,05,14.40
2013,09,16,01,06,14.40
2013,09,16,01,07,14.40
2013,09,16,01,08,14.40
2013,09,16,01,09,14.50
2013,09,16,01,10,14.50
2013,09,16,01,11,14.50
2013,09,16,01,12,14.50
2013,09,16,01,13,14.60
2013,09,16,01,14,14.60
2013,09,16,01,15,14.60
2013,09,16,01,16,14.60
2013,09,16,01,17,14.60
2013,09,16,01,18,14.60
2013,09,16,01,19,14.70
2013,09,16,01,20,14.70
2013,09,16,01,21,14.70
2013,09,16,01,22,14.70
2013,09,16,01,23,14.70
2013,09,16,01,24,14.80
2013,09,16,01,25,14.80
2013,09,16,01,26,14.80
2013,09,16,01,27,14.80
2013,09,16,01,28,14.80
2013,09,16,01,29,14.80
2013,09,16,01,30,14.80
2013,09,16,01,31,14.90
2013,09,16,01,32,14.90
2013,09,16,01,33,14.90
2013,09,16,01,34,15.00
2013,09,16,01,35,15.00
2013,09,16,01,36,15.00
2013,09,16,01,37,15.00
2013,09,16,01,38,15.00
2013,09,16,01,39,15.10
2013,09,16,01,40,15.10
2013,09,16,01,41,15.10
2013,09,16,01,42,15.10
2013,09,16,01,43,15.10
2013,09,16,01,44,15.20
2013,09,16,01,45,15.20
2013,09,16,01,46,15.20
2013,09,16,01,47,15.30
2013,09,16,01,48,15.30
2013,09,16,01,49,15.30
2013,09,16,01,50,15.30
2013,09,16,01,51,15.30
2013,09,16,01,52,15.30
2013,09,16,01,53,15.30
2013,09,16,01,54,15.40
2013,09,16,01,55,15.40
2013,09,16,01,56,15.50
2013,09,16,01,57,15.50
2013,09,16,01,58,15.50
2013,09,16,01,59,15.60
2013,09,16,02,00,15.60
2013,09,16,02,01,15.60
2013,09,16,02,02,15.70
2013,09,16,02,03,15.70
2013,09,16,02,04,15.70
2013,09,16,02,05,15.70
2013,09,16,02,06,15.70
2013,09,16,02,07,15.70
2013,09,16,02,08,15.70
2013,09,16,02,09,15.80
2013,09,16,02,10,15.80
2013,09,16,02,11,15.80
2013,09,16,02,12,15.80
2013,09,16,02,13,15.80
2013,09,16,02,14,15.80
2013,09,16,02,15,15.80
2013,09,16,02,16,15.80
2013,09,16,02,17,15.80
2013,09,16,02,18,15.80
2013,09,16,02,19,15.80
2013,09,16,02,20,15.80
2013,09,16,02,21,15.80
2013,09,16,02,22,15.80
2013,09,16,02,23,15.80
2013,09,16,02,24,15.80
2013,09,16,02,25,15.90
2013,09,16,02,26,15.90
2013,09,16,02,27,15.90
2013,09,16,02,28,16.00
2013,09,16,02,29,16.10
2013,09,16,02,30,16.10
2013,09,16,02,31,16.10
2013,09,16,02,32,16.10
2013,09,16,02,33,16.20
2013,09,16,02,34,16.20
2013,09,16,02,35,16.20
2013,09,16,02,36,16.30
2013,09,16,02,37,16.30
2013,09,16,02,38,16.30
2013,09,16,02,39,16.30
2013,09,16,02,40,16.30
2013,09,16,02,41,16.30
2013,09,16,02,42,16.40
2013,09,16,02,43,16.40
2013,09,16,02,44,16.40
2013,09,16,02,45,16.40
2013,09,16,02,46,16.40
2013,09,16,02,47,16.40
2013,09,16,02,48,16.40
2013,09,16,02,49,16.40
2013,09,16,02,50,16.40
2013,09,16,02,51,16.40
2013,09,16,02,52,16.40
2013,09,16,02,53,16.40
2013,09,16,02,54,16.40
2013,09,16,02,55,16.40
2013,09,16,02,56,16.40
2013,09,16,02,57,16.50
2013,09,16,02,58,16.60
2013,09,16,02,59,16.60
2013,09,16,03,00,16.60
2013,09,16,03,01,16.60
2013,09,16,03,02,16.60
2013,09,16,03,03,16.60
2013,09,16,03,04,16.70
2013,09,16,03,05,16.60
2013,09,16,03,06,16.60
2013,09,16,03,07,16.60
2013,09,16,03,08,16.60
2013,09,16,03,09,16.60
2013,09,16,03,10,16.60
2013,09,16,03,11,16.60
2013,09,16,03,12,16.60
2013,09,16,03,13,16.60
2013,09,16,03,14,16.60
2013,09,16,03,15,16.60
2013,09,16,03,16,16.60
2013,09,16,03,17,16.60
2013,09,16,03,18,16.60
2013,09,16,03,19,16.60
2013,09,16,03,20,16.60
2013,09,16,03,21,16.60
2013,09,16,03,22,16.60
2013,09,16,03,23,16.70
2013,09,16,03,24,16.70
2013,09,16,03,25,16.70
2013,09,16,03,26,16.70
2013,09,16,03,27,16.70
2013,09,16,03,28,16.70
2013,09,16,03,29,16.70
2013,09,16,03,30,16.70
2013,09,16,03,31,16.70
2013,09,16,03,32,16.70
2013,09,16,03,33,16.70
2013,09,16,03,34,16.70
2013,09,16,03,35,16.70
2013,09,16,03,36,16.70
2013,09,16,03,37,16.70
2013,09,16,03,38,16.70
2013,09,16,03,39,16.70
2013,09,16,03,40,16.70
2013,09,16,03,41,16.70
2013,09,16,03,42,16.70
2013,09,16,03,43,16.70
2013,09,16,03,44,16.70
2013,09,16,03,45,16.70
2013,09,16,03,46,16.70
2013,09,16,03,47,16.70
2013,09,16,03,48,16.70
2013,09,16,03,49,16.70
2013,09,16,03,50,16.70
2013,09,16,03,51,16.70
2013,09,16,03,52,16.70
2013,09,16,03,53,16.70
2013,09,16,03,54,16.70
2013,09,16,03,55,16.70
2013,09,16,03,56,16.70
2013,09,16,03,57,16.70
2013,09,16,03,58,16.70
2013,09,16,03,59,16.70
2013,09,16,04,00,16.70
2013,09,16,04,01,16.70
2013,09,16,04,02,16.70
2013,09,16,04,03,16.70
2013,09,16,04,04,16.70
2013,09,16,04,05,16.70
2013,09,16,04,06,16.70
2013,09,16,04,07,16.70
2013,09,16,04,08,16.70
2013,09,16,04,09,16.70
2013,09,16,04,10,16.70
2013,09,16,04,11,16.70
2013,09,16,04,12,16.70
2013,09,16,04,13,16.70
2013,09,16,04,14,16.70
2013,09,16,04,15,16.70
2013,09,16,04,16,16.70
2013,09,16,04,17,16.70
2013,09,16,04,18,16.70
2013,09,16,04,19,16.70
2013,09,16,04,20,16.70
2013,09,16,04,21,16.70
2013,09,16,04,22,16.70
2013,09,16,04,23,16.70
2013,09,16,04,24,16.70
2013,09,16,04,25,16.70
2013,09,16,04,26,16.70
2013,09,16,04,27,16.70
2013,09,16,04,28,16.70
2013,09,16,04,29,16.70
2013,09,16,04,30,16.70
2013,09,16,04,31,16.70
2013,09,16,04,32,16.60
2013,09,16,04,33,16.60
2013,09,16,04,34,16.60
2013,09,16,04,35,16.60
2013,09,16,04,36,16.60
2013,09,16,04,37,16.60
2013,09,16,04,38,16.60
2013,09,16,04,39,16.60
2013,09,16,04,40,16.60
2013,09,16,04,41,16.60
2013,09,16,04,42,16.60
2013,09,16,04,43,16.60
2013,09,16,04,44,16.60
2013,09,16,04,45,16.60
2013,09,16,04,46,16.60
2013,09,16,04,47,16.60
2013,09,16,04,48,16.60
2013,09,16,04,49,16.60
2013,09,16,04,50,16.60
2013,09,16,04,51,16.60
2013,09,16,04,52,16.60
2013,09,16,04,53,16.60
2013,09,16,04,54,16.60
2013,09,16,04,55,16.60
2013,09,16,04,56,16.60
2013,09,16,04,57,16.60
2013,09,16,04,58,16.60
2013,09,16,04,59,16.60
2013,09,16,05,00,16.60
2013,09,16,05,01,16.60
2013,09,16,05,02,16.60
2013,09,16,05,03,16.60
2013,09,16,05,04,16.60
2013,09,16,05,05,16.60
2013,09,16,05,06,16.60
2013,09,16,05,07,16.60
2013,09,16,05,08,16.60
2013,09,16,05,09,16.60
2013,09,16,05,10,16.60
2013,09,16,05,11,16.60
2013,09,16,05,12,16.60
2013,09,16,05,13,16.60
2013,09,16,05,14,16.60
2013,09,16,05,15,16.60
2013,09,16,05,16,16.60
2013,09,16,05,17,16.60
2013,09,16,05,18,16.50
2013,09,16,05,19,16.40
2013,09,16,05,20,16.40
2013,09,16,05,21,16.40
2013,09,16,05,22,16.40
2013,09,16,05,23,16.40
2013,09,16,05,24,16.40
2013,09,16,05,25,16.40
2013,09,16,05,26,16.40
2013,09,16,05,27,16.40
2013,09,16,05,28,16.40
2013,09,16,05,29,16.40
2013,09,16,05,30,16.40
2013,09,16,05,31,16.40
2013,09,16,05,32,16.40
2013,09,16,05,33,16.40
2013,09,16,05,34,16.40
2013,09,16,05,35,16.50
2013,09,16,05,36,16.60
2013,09,16,05,37,16.60
2013,09,16,05,38,16.60
2013,09,16,05,39,16.50
2013,09,16,05,40,16.40
2013,09,16,05,41,16.40
2013,09,16,05,42,16.40
2013,09,16,05,43,16.40
2013,09,16,05,44,16.40
2013,09,16,05,45,16.40
2013,09,16,05,46,16.40
2013,09,16,05,47,16.40
2013,09,16,05,48,16.40
2013,09,16,05,49,16.40
2013,09,16,05,50,16.40
2013,09,16,05,51,16.40
2013,09,16,05,52,16.40
2013,09,16,05,53,16.40
2013,09,16,05,54,16.40
2013,09,16,05,55,16.40
2013,09,16,05,56,16.40
2013,09,16,05,57,16.40
2013,09,16,05,58,16.40
2013,09,16,05,59,16.40
2013,09,16,06,00,16.40
2013,09,16,06,01,16.40
2013,09,16,06,02,16.30
2013,09,16,06,03,16.30
2013,09,16,06,04,16.30
2013,09,16,06,05,16.30
2013,09,16,06,06,16.30
2013,09,16,06,07,16.30
2013,09,16,06,08,16.30
2013,09,16,06,09,16.30
2013,09,16,06,10,16.30
2013,09,16,06,11,16.30
2013,09,16,06,12,16.30
2013,09,16,06,13,16.30
2013,09,16,06,14,16.30
2013,09,16,06,15,16.30
2013,09,16,06,16,16.30
2013,09,16,06,17,16.30
2013,09,16,06,18,16.30
2013,09,16,06,19,16.30
2013,09,16,06,20,16.30
2013,09,16,06,21,16.30
2013,09,16,06,22,16.30
2013,09,16,06,23,16.30
2013,09,16,06,24,16.30
2013,09,16,06,25,16.30
2013,09,16,06,26,16.30
2013,09,16,06,27,16.30
2013,09,16,06,28,16.30
2013,09,16,06,29,16.30
2013,09,16,06,30,16.30
2013,09,16,06,31,16.30
2013,09,16,06,32,16.30
2013,09,16,06,33,16.30
2013,09,16,06,34,16.30
2013,09,16,06,35,16.30
2013,09,16,06,36,16.30
2013,09,16,06,37,16.40
2013,09,16,06,38,16.40
2013,09,16,06,39,16.40
2013,09,16,06,40,16.40
2013,09,16,06,41,16.40
2013,09,16,06,42,16.40
2013,09,16,06,43,16.40
2013,09,16,06,44,16.40
2013,09,16,06,45,16.30
2013,09,16,06,46,16.30
2013,09,16,06,47,16.30
2013,09,16,06,48,16.30
2013,09,16,06,49,16.30
2013,09,16,06,50,16.30
2013,09,16,06,51,16.30
2013,09,16,06,52,16.30
2013,09,16,06,53,16.30
2013,09,16,06,54,16.30
2013,09,16,06,55,16.30
2013,09,16,06,56,16.30
2013,09,16,06,57,16.30
2013,09,16,06,58,16.30
2013,09,16,06,59,16.20
2013,09,16,07,00,16.20
2013,09,16,07,01,16.20
2013,09,16,07,02,16.20
2013,09,16,07,03,16.20
2013,09,16,07,04,16.20
2013,09,16,07,05,16.20
2013,09,16,07,06,16.20
2013,09,16,07,07,16.10
2013,09,16,07,08,16.10
2013,09,16,07,09,16.10
2013,09,16,07,10,16.10
2013,09,16,07,11,16.10
2013,09,16,07,12,16.10
2013,09,16,07,13,16.10
2013,09,16,07,14,16.10
2013,09,16,07,15,16.10
2013,09,16,07,16,16.10
2013,09,16,07,17,16.10
2013,09,16,07,18,16.10
2013,09,16,07,19,16.10
2013,09,16,07,20,16.10
2013,09,16,07,21,16.10
2013,09,16,07,22,16.10
2013,09,16,07,23,16.10
2013,09,16,07,24,16.10
2013,09,16,07,25,16.10
2013,09,16,07,26,16.10
2013,09,16,07,27,16.10
2013,09,16,07,28,16.10
2013,09,16,07,29,16.10
2013,09,16,07,30,16.10
2013,09,16,07,31,16.00
2013,09,16,07,32,15.90
2013,09,16,07,33,15.80
2013,09,16,07,34,15.80
2013,09,16,07,35,15.80
2013,09,16,07,36,15.70
2013,09,16,07,37,15.60
2013,09,16,07,38,15.60
2013,09,16,07,39,15.50
2013,09,16,07,40,15.40
2013,09,16,07,41,15.40
2013,09,16,07,42,15.30
2013,09,16,07,43,15.30
2013,09,16,07,44,15.20
2013,09,16,07,45,15.20
2013,09,16,07,46,15.20
2013,09,16,07,47,15.20
2013,09,16,07,48,15.10
2013,09,16,07,49,15.10
2013,09,16,07,50,15.10
2013,09,16,07,51,15.00
2013,09,16,07,52,15.00
2013,09,16,07,53,15.00
2013,09,16,07,54,14.90
2013,09,16,07,55,14.90
2013,09,16,07,56,14.90
2013,09,16,07,57,14.90
2013,09,16,07,58,14.90
2013,09,16,07,59,14.90
2013,09,16,08,00,14.90
2013,09,16,08,01,14.90
2013,09,16,08,02,14.90
2013,09,16,08,03,14.90
2013,09,16,08,04,14.80
2013,09,16,08,05,14.80
2013,09,16,08,06,14.80
2013,09,16,08,07,14.80
2013,09,16,08,08,14.70
2013,09,16,08,09,14.60
2013,09,16,08,10,14.60
2013,09,16,08,11,14.60
2013,09,16,08,12,14.50
2013,09,16,08,13,14.50
2013,09,16,08,14,14.50
2013,09,16,08,15,14.50
2013,09,16,08,16,14.50
2013,09,16,08,17,14.40
2013,09,16,08,18,14.40
2013,09,16,08,19,14.40
2013,09,16,08,20,14.40
2013,09,16,08,21,14.40
2013,09,16,08,22,14.40
2013,09,16,08,23,14.40
2013,09,16,08,24,14.40
2013,09,16,08,25,14.40
2013,09,16,08,26,14.40
2013,09,16,08,27,14.50
2013,09,16,08,28,14.50
2013,09,16,08,29,14.50
2013,09,16,08,30,14.50
2013,09,16,08,31,14.50
2013,09,16,08,32,14.50
2013,09,16,08,33,14.50
2013,09,16,08,34,14.50
2013,09,16,08,35,14.60
2013,09,16,08,36,14.60
2013,09,16,08,37,14.60
2013,09,16,08,38,14.60
2013,09,16,08,39,14.60
2013,09,16,08,40,14.60
2013,09,16,08,41,14.60
2013,09,16,08,42,14.60
2013,09,16,08,43,14.60
2013,09,16,08,44,14.60
2013,09,16,08,45,14.60
2013,09,16,08,46,14.70
2013,09,16,08,47,14.70
2013,09,16,08,48,14.70
2013,09,16,08,49,14.70
2013,09,16,08,50,14.70
2013,09,16,08,51,14.70
2013,09,16,08,52,14.70
2013,09,16,08,53,14.70
2013,09,16,08,54,14.70
2013,09,16,08,55,14.70
2013,09,16,08,56,14.70
2013,09,16,08,57,14.70
2013,09,16,08,58,14.80
2013,09,16,08,59,14.80
2013,09,16,09,00,14.80
2013,09,16,09,01,14.80
2013,09,16,09,02,14.70
2013,09,16,09,03,14.70
2013,09,16,09,04,14.70
2013,09,16,09,05,14.70
2013,09,16,09,06,14.70
2013,09,16,09,07,14.70
2013,09,16,09,08,14.70
2013,09,16,09,09,14.70
2013,09,16,09,10,14.70
2013,09,16,09,11,14.70
2013,09,16,09,12,14.70
2013,09,16,09,13,14.70
2013,09,16,09,14,14.70
2013,09,16,09,15,14.70
2013,09,16,09,16,14.70
2013,09,16,09,17,14.70
2013,09,16,09,18,14.70
2013,09,16,09,19,14.70
2013,09,16,09,20,14.70
2013,09,16,09,21,14.70
2013,09,16,09,22,14.70
2013,09,16,09,23,14.80
2013,09,16,09,24,14.80
2013,09,16,09,25,14.80
2013,09,16,09,26,14.80
2013,09,16,09,27,14.80
2013,09,16,09,28,14.80
2013,09,16,09,29,14.80
2013,09,16,09,30,14.80
2013,09,16,09,31,14.80
2013,09,16,09,32,14.80
2013,09,16,09,33,14.80
2013,09,16,09,34,14.80
2013,09,16,09,35,14.80
2013,09,16,09,36,14.80
2013,09,16,09,37,14.80
2013,09,16,09,38,14.80
2013,09,16,09,39,14.80
2013,09,16,09,40,14.80
2013,09,16,09,41,14.80
2013,09,16,09,42,14.80
2013,09,16,09,43,14.80
2013,09,16,09,44,14.80
2013,09,16,09,45,14.80
2013,09,16,09,46,14.80
2013,09,16,09,47,14.80
2013,09,16,09,48,14.80
2013,09,16,09,49,14.80
2013,09,16,09,50,14.80
2013,09,16,09,51,14.70
2013,09,16,09,52,14.70
2013,09,16,09,53,14.70
2013,09,16,09,54,14.70
2013,09,16,09,55,14.80
2013,09,16,09,56,14.80
2013,09,16,09,57,14.80
2013,09,16,09,58,14.80
2013,09,16,09,59,14.80
2013,09,16,10,00,14.80
2013,09,16,10,01,14.80
2013,09,16,10,02,14.80
2013,09,16,10,03,14.80
2013,09,16,10,04,14.80
2013,09,16,10,05,14.80
2013,09,16,10,06,14.80
2013,09,16,10,07,14.80
2013,09,16,10,08,14.70
2013,09,16,10,09,14.70
2013,09,16,10,10,14.70
2013,09,16,10,11,14.70
2013,09,16,10,12,14.70
2013,09,16,10,13,14.70
2013,09,16,10,14,14.70
2013,09,16,10,15,14.70
2013,09,16,10,16,14.70
2013,09,16,10,17,14.70
2013,09,16,10,18,14.70
2013,09,16,10,19,14.60
2013,09,16,10,20,14.60
2013,09,16,10,21,14.60
2013,09,16,10,22,14.70
2013,09,16,10,23,14.70
2013,09,16,10,24,14.70
2013,09,16,10,25,14.70
2013,09,16,10,26,14.70
2013,09,16,10,27,14.70
2013,09,16,10,28,14.70
2013,09,16,10,29,14.70
2013,09,16,10,30,14.70
2013,09,16,10,31,14.70
2013,09,16,10,32,14.70
2013,09,16,10,33,14.80
2013,09,16,10,34,14.80
2013,09,16,10,35,14.80
2013,09,16,10,36,14.80
2013,09,16,10,37,14.80
2013,09,16,10,38,14.80
2013,09,16,10,39,14.80
2013,09,16,10,40,14.80
2013,09,16,10,41,14.80
2013,09,16,10,42,14.80
2013,09,16,10,43,14.80
2013,09,16,10,44,14.80
2013,09,16,10,45,14.80
2013,09,16,10,46,14.80
2013,09,16,10,47,14.80
2013,09,16,10,48,14.80
2013,09,16,10,49,14.80
2013,09,16,10,50,14.80
2013,09,16,10,51,14.80
2013,09,16,10,52,14.80
2013,09,16,10,53,14.80
2013,09,16,10,54,14.80
2013,09,16,10,55,14.80
2013,09,16,10,56,14.80
2013,09,16,10,57,14.80
2013,09,16,10,58,14.80
2013,09,16,10,59,14.80
2013,09,16,11,00,14.80
2013,09,16,11,01,14.90
2013,09,16,11,02,14.90
2013,09,16,11,03,14.90
2013,09,16,11,04,15.00
2013,09,16,11,05,15.00
2013,09,16,11,06,15.00
2013,09,16,11,07,15.00
2013,09,16,11,08,15.00
2013,09,16,11,09,15.00
2013,09,16,11,10,15.10
2013,09,16,11,11,15.10
2013,09,16,11,12,15.10
2013,09,16,11,13,15.10
2013,09,16,11,14,15.10
2013,09,16,11,15,15.10
2013,09,16,11,16,15.10
2013,09,16,11,17,15.10
2013,09,16,11,18,15.20
2013,09,16,11,19,15.20
2013,09,16,11,20,15.20
2013,09,16,11,21,15.20
2013,09,16,11,22,15.30
2013,09,16,11,23,15.30
2013,09,16,11,24,15.30
2013,09,16,11,25,15.30
2013,09,16,11,26,15.30
2013,09,16,11,27,15.40
2013,09,16,11,28,15.40
2013,09,16,11,29,15.50
2013,09,16,11,30,15.50
2013,09,16,11,31,15.60
2013,09,16,11,32,15.60
2013,09,16,11,33,15.70
2013,09,16,11,34,15.70
2013,09,16,11,35,15.80
2013,09,16,11,36,15.80
2013,09,16,11,37,15.80
2013,09,16,11,38,15.80
2013,09,16,11,39,15.80
2013,09,16,11,40,15.90
2013,09,16,11,41,15.90
2013,09,16,11,42,16.00
2013,09,16,11,43,16.10
2013,09,16,11,44,16.10
2013,09,16,11,45,16.10
2013,09,16,11,46,16.10
2013,09,16,11,47,16.10
2013,09,16,11,48,16.20
2013,09,16,11,49,16.20
2013,09,16,11,50,16.20
2013,09,16,11,51,16.30
2013,09,16,11,52,16.30
2013,09,16,11,53,16.30
2013,09,16,11,54,16.30
2013,09,16,11,55,16.30
2013,09,16,11,56,16.30
2013,09,16,11,57,16.40
2013,09,16,11,58,16.40
2013,09,16,11,59,16.40
2013,09,16,12,00,16.40
2013,09,16,12,01,16.40
2013,09,16,12,02,16.40
2013,09,16,12,03,16.40
2013,09,16,12,04,16.50
2013,09,16,12,05,16.60
2013,09,16,12,06,16.60
2013,09,16,12,07,16.60
2013,09,16,12,08,16.60
2013,09,16,12,09,16.70
2013,09,16,12,10,16.70
2013,09,16,12,11,16.70
2013,09,16,12,12,16.70
2013,09,16,12,13,16.70
2013,09,16,12,14,16.80
2013,09,16,12,15,16.80
2013,09,16,12,16,16.80
2013,09,16,12,17,16.80
2013,09,16,12,18,16.90
2013,09,16,12,19,16.90
2013,09,16,12,20,17.00
2013,09,16,12,21,17.00
2013,09,16,12,22,17.00
2013,09,16,12,23,17.10
2013,09,16,12,24,17.10
2013,09,16,12,25,17.20
2013,09,16,12,26,17.20
2013,09,16,12,27,17.20
2013,09,16,12,28,17.20
2013,09,16,12,29,17.20
2013,09,16,12,30,17.20
2013,09,16,12,31,17.20
2013,09,16,12,32,17.20
2013,09,16,12,33,17.20
2013,09,16,12,34,17.20
2013,09,16,12,35,17.20
2013,09,16,12,36,17.20
2013,09,16,12,37,17.30
2013,09,16,12,38,17.30
2013,09,16,12,39,17.30
2013,09,16,12,40,17.30
2013,09,16,12,41,17.40
2013,09,16,12,42,17.40
2013,09,16,12,43,17.50
2013,09,16,12,44,17.50
2013,09,16,12,45,17.50
2013,09,16,12,46,17.60
2013,09,16,12,47,17.60
2013,09,16,12,48,17.70
2013,09,16,12,49,17.80
2013,09,16,12,50,17.80
2013,09,16,12,51,17.90
2013,09,16,12,52,18.00
2013,09,16,12,53,18.10
2013,09,16,12,54,18.10
2013,09,16,12,55,18.20
2013,09,16,12,56,18.20
2013,09,16,12,57,18.30
2013,09,16,12,58,18.30
2013,09,16,12,59,18.40
2013,09,16,13,00,18.50
2013,09,16,13,01,18.60
2013,09,16,13,02,18.70
2013,09,16,13,03,18.80
2013,09,16,13,04,18.90
2013,09,16,13,05,19.00
2013,09,16,13,06,19.10
2013,09,16,13,07,19.30
2013,09,16,13,08,19.40
2013,09,16,13,09,19.40
2013,09,16,13,10,19.50
2013,09,16,13,11,19.60
2013,09,16,13,12,19.60
2013,09,16,13,13,19.70
2013,09,16,13,14,19.80
2013,09,16,13,15,19.90
2013,09,16,13,16,20.00
2013,09,16,13,17,20.10
2013,09,16,13,18,20.10
2013,09,16,13,19,20.10
2013,09,16,13,20,20.10
2013,09,16,13,21,20.00
2013,09,16,13,22,19.90
2013,09,16,13,23,19.90
2013,09,16,13,24,19.90
2013,09,16,13,25,20.00
2013,09,16,13,26,20.10
2013,09,16,13,27,20.20
2013,09,16,13,28,20.20
2013,09,16,13,29,20.20
2013,09,16,13,30,20.20
2013,09,16,13,31,20.20
2013,09,16,13,32,20.20
2013,09,16,13,33,20.30
2013,09,16,13,34,20.30
2013,09,16,13,35,20.30
2013,09,16,13,36,20.30
2013,09,16,13,37,20.40
2013,09,16,13,38,20.40
2013,09,16,13,39,20.40
2013,09,16,13,40,20.40
2013,09,16,13,41,20.40
2013,09,16,13,42,20.40
2013,09,16,13,43,20.40
2013,09,16,13,44,20.40
2013,09,16,13,45,20.40
2013,09,16,13,46,20.40
2013,09,16,13,47,20.40
2013,09,16,13,48,20.40
2013,09,16,13,49,20.40
2013,09,16,13,50,20.50
2013,09,16,13,51,20.50
2013,09,16,13,52,20.50
2013,09,16,13,53,20.50
2013,09,16,13,54,20.50
2013,09,16,13,55,20.50
2013,09,16,13,56,20.60
2013,09,16,13,57,20.60
2013,09,16,13,58,20.50
2013,09,16,13,59,20.50
2013,09,16,14,00,20.40
2013,09,16,14,01,20.30
2013,09,16,14,02,20.30
2013,09,16,14,03,20.20
2013,09,16,14,04,20.20
2013,09,16,14,05,20.20
2013,09,16,14,06,20.30
2013,09,16,14,07,20.30
2013,09,16,14,08,20.30
2013,09,16,14,09,20.30
2013,09,16,14,10,20.30
2013,09,16,14,11,20.30
2013,09,16,14,12,20.40
2013,09,16,14,13,20.40
2013,09,16,14,14,20.40
2013,09,16,14,15,20.50
2013,09,16,14,16,20.50
2013,09,16,14,17,20.50
2013,09,16,14,18,20.40
2013,09,16,14,19,20.30
2013,09,16,14,20,20.30
2013,09,16,14,21,20.20
2013,09,16,14,22,20.20
2013,09,16,14,23,20.20
2013,09,16,14,24,20.10
2013,09,16,14,25,20.00
2013,09,16,14,26,19.90
2013,09,16,14,27,19.90
2013,09,16,14,28,19.90
2013,09,16,14,29,19.90
2013,09,16,14,30,19.80
2013,09,16,14,31,19.80
2013,09,16,14,32,19.90
2013,09,16,14,33,19.90
2013,09,16,14,34,19.90
2013,09,16,14,35,19.90
2013,09,16,14,36,19.90
2013,09,16,14,37,19.80
2013,09,16,14,38,19.80
2013,09,16,14,39,19.80
2013,09,16,14,40,19.70
2013,09,16,14,41,19.70
2013,09,16,14,42,19.70
2013,09,16,14,43,19.60
2013,09,16,14,44,19.60
2013,09,16,14,45,19.60
2013,09,16,14,46,19.60
2013,09,16,14,47,19.50
2013,09,16,14,48,19.50
2013,09,16,14,49,19.50
2013,09,16,14,50,19.50
2013,09,16,14,51,19.50
2013,09,16,14,52,19.50
2013,09,16,14,53,19.50
2013,09,16,14,54,19.50
2013,09,16,14,55,19.50
2013,09,16,14,56,19.50
2013,09,16,14,57,19.50
2013,09,16,14,58,19.50
2013,09,16,14,59,19.50
2013,09,16,15,00,19.50
2013,09,16,15,01,19.50
2013,09,16,15,02,19.50
2013,09,16,15,03,19.50
2013,09,16,15,04,19.50
2013,09,16,15,05,19.60
2013,09,16,15,06,19.60
2013,09,16,15,07,19.60
2013,09,16,15,08,19.60
2013,09,16,15,09,19.60
2013,09,16,15,10,19.60
2013,09,16,15,11,19.60
2013,09,16,15,12,19.60
2013,09,16,15,13,19.60
2013,09,16,15,14,19.60
2013,09,16,15,15,19.70
2013,09,16,15,16,19.70
2013,09,16,15,17,19.70
2013,09,16,15,18,19.70
2013,09,16,15,19,19.70
2013,09,16,15,20,19.70
2013,09,16,15,21,19.80
2013,09,16,15,22,19.80
2013,09,16,15,23,19.80
2013,09,16,15,24,19.80
2013,09,16,15,25,19.80
2013,09,16,15,26,19.80
2013,09,16,15,27,19.80
2013,09,16,15,28,19.80
2013,09,16,15,29,19.90
2013,09,16,15,30,19.90
2013,09,16,15,31,19.90
2013,09,16,15,32,19.90
2013,09,16,15,33,19.90
2013,09,16,15,34,19.90
2013,09,16,15,35,19.90
2013,09,16,15,36,19.90
2013,09,16,15,37,19.90
2013,09,16,15,38,19.80
2013,09,16,15,39,19.80
2013,09,16,15,40,19.80
2013,09,16,15,41,19.80
2013,09,16,15,42,19.80
2013,09,16,15,43,19.80
2013,09,16,15,44,19.80
2013,09,16,15,45,19.80
2013,09,16,15,46,19.80
2013,09,16,15,47,19.70
2013,09,16,15,48,19.70
2013,09,16,15,49,19.60
2013,09,16,15,50,19.60
2013,09,16,15,51,19.50
2013,09,16,15,52,19.50
2013,09,16,15,53,19.40
2013,09,16,15,54,19.40
2013,09,16,15,55,19.30
2013,09,16,15,56,19.30
2013,09,16,15,57,19.30
2013,09,16,15,58,19.20
2013,09,16,15,59,19.20
2013,09,16,16,00,19.20
2013,09,16,16,01,19.10
2013,09,16,16,02,19.10
2013,09,16,16,03,19.10
2013,09,16,16,04,19.10
2013,09,16,16,05,19.10
2013,09,16,16,06,19.10
2013,09,16,16,07,19.10
2013,09,16,16,08,19.10
2013,09,16,16,09,19.00
2013,09,16,16,10,18.90
2013,09,16,16,11,18.90
2013,09,16,16,12,18.90
2013,09,16,16,13,18.90
2013,09,16,16,14,18.90
2013,09,16,16,15,18.90
2013,09,16,16,16,18.90
2013,09,16,16,17,18.90
2013,09,16,16,18,18.90
2013,09,16,16,19,18.90
2013,09,16,16,20,18.90
2013,09,16,16,21,18.90
2013,09,16,16,22,18.90
2013,09,16,16,23,18.90
2013,09,16,16,24,18.90
2013,09,16,16,25,18.90
2013,09,16,16,26,18.90
2013,09,16,16,27,18.90
2013,09,16,16,28,18.90
2013,09,16,16,29,18.90
2013,09,16,16,30,18.80
2013,09,16,16,31,18.70
2013,09,16,16,32,18.70
2013,09,16,16,33,18.70
2013,09,16,16,34,18.70
2013,09,16,16,35,18.70
2013,09,16,16,36,18.70
2013,09,16,16,37,18.70
2013,09,16,16,38,18.70
2013,09,16,16,39,18.70
2013,09,16,16,40,18.70
2013,09,16,16,41,18.60
2013,09,16,16,42,18.60
2013,09,16,16,43,18.60
2013,09,16,16,44,18.60
2013,09,16,16,45,18.50
2013,09,16,16,46,18.50
2013,09,16,16,47,18.50
2013,09,16,16,48,18.50
2013,09,16,16,49,18.40
2013,09,16,16,50,18.40
2013,09,16,16,51,18.40
2013,09,16,16,52,18.40
2013,09,16,16,53,18.40
2013,09,16,16,54,18.40
2013,09,16,16,55,18.40
2013,09,16,16,56,18.40
2013,09,16,16,57,18.40
2013,09,16,16,58,18.40
2013,09,16,16,59,18.30
2013,09,16,17,00,18.30
2013,09,16,17,01,18.30
2013,09,16,17,02,18.20
2013,09,16,17,03,18.20
2013,09,16,17,04,18.20
2013,09,16,17,05,18.20
2013,09,16,17,06,18.20
2013,09,16,17,07,18.20
2013,09,16,17,08,18.20
2013,09,16,17,09,18.20
2013,09,16,17,10,18.20
2013,09,16,17,11,18.20
2013,09,16,17,12,18.20
2013,09,16,17,13,18.20
2013,09,16,17,14,18.20
2013,09,16,17,15,18.20
2013,09,16,17,16,18.20
2013,09,16,17,17,18.20
2013,09,16,17,18,18.20
2013,09,16,17,19,18.20